User: anonymous   Login
Location: Ostrava
(49.8330°N, 18.2830°E)
Time: 07:15:42
(UTC+01:00)
Language:

Cosmos 2221 - Orbit

View from above orbital plane
View from above orbital plane
View from above satellite
View from above satellite

Ground track
Ground track

The orbit data is extracted from the following two-line orbital elements,

1 22236U 92080A   17080.63905840 +.00000177 +00000-0 +16835-4 0  9997
2 22236 082.5086 141.9280 0015203 292.1182 067.8421 14.87554026314308
Epoch (UTC): 21 March 2017 15:20:14
Eccentricity: 0.0015203
inclination: 82.5086°
perigee height: 595 km
apogee height: 616 km
right ascension of ascending node: 141.9280°
argument of perigee: 292.1182°
revolutions per day: 14.87554026
mean anomaly at epoch: 67.8421°
orbit number at epoch: 31430

The dashed part of the orbit path shows where the satellite is in the earth's shadow,  

DLR